GW1838 Weather Reports


time (UTC)temp
F
wind
direction
speed
knots
gust
knots
rain 1hr
in
rain 24hr
in
rain mn
in
humidity
%
barometer
mb
20240222102305 35 123 0.0 0.0 0.00 0.00 0.00 75 1020.5
20240222101804 35 123 0.0 0.0 0.00 0.00 0.00 75 1020.4
20240222094805 36 123 0.9 1.7 0.00 0.00 0.00 74 1020.5
20240222093304 35 109 0.9 1.7 0.00 0.00 0.00 74 1020.5
20240222092804 35 61 0.0 1.7 0.00 0.00 0.00 74 1020.5
20240222092306 36 61 0.9 1.7 0.00 0.00 0.00 73 1020.6
20240222085804 36 61 1.7 2.6 0.00 0.00 0.00 73 1020.8
20240222084305 36 90 0.0 2.6 0.00 0.00 0.00 73 1020.9
20240222082305 36 60 0.9 1.7 0.00 0.00 0.00 73 1021.4
20240222081805 37 60 0.0 0.9 0.00 0.00 0.00 73 1021.5
20240222080804 37 60 0.0 2.6 0.00 0.00 0.00 73 1021.5
20240222075306 37 59 1.7 2.6 0.00 0.00 0.00 73 1021.8
20240222074804 37 59 0.9 1.7 0.00 0.00 0.00 73 1022.1
20240222073805 37 120 0.0 0.9 0.00 0.00 0.00 73 1022.0
20240222073304 37 120 0.0 0.0 0.00 0.00 0.00 73 1022.0
20240222071304 37 130 0.0 1.7 0.00 0.00 0.00 73 1022.1
20240222070803 37 130 0.9 1.7 0.00 0.00 0.00 72 1022.2
20240222065305 37 192 0.0 0.0 0.00 0.00 0.00 72 1022.4
20240222064304 37 192 0.0 1.7 0.00 0.00 0.00 72 1022.6
20240222063304 37 90 0.9 2.6 0.00 0.00 0.00 73 1022.8
20240222062305 37 129 0.9 2.6 0.00 0.00 0.00 73 1022.9
20240222060304 37 139 0.9 1.7 0.00 0.00 0.00 73 1022.8
20240222055804 37 142 0.0 1.7 0.00 0.00 0.00 73 1022.9
20240222053805 37 178 1.7 2.6 0.00 0.00 0.00 73 1023.0
20240222053304 37 192 1.7 4.3 0.00 0.00 0.00 72 1022.9
20240222051304 37 166 1.7 2.6 0.00 0.00 0.00 72 1023.3
20240222050840 37 147 2.6 5.2 0.00 0.00 0.00 72 1023.5
20240222045804 37 169 1.7 2.6 0.00 0.00 0.00 72 1023.5
20240222043804 38 114 2.6 4.3 0.00 0.00 0.00 71 1023.7
20240222043304 38 96 2.6 5.2 0.00 0.00 0.00 71 1023.7
20240222042804 38 168 2.6 2.6 0.00 0.00 0.00 71 1023.8
20240222034303 38 116 0.9 2.6 0.00 0.00 0.00 70 1024.6
20240222032804 38 121 0.9 4.3 0.00 0.00 0.00 70 1024.6
20240222031303 38 109 4.3 7.0 0.00 0.00 0.00 70 1024.6
20240222030804 39 113 4.3 7.0 0.00 0.00 0.00 70 1024.7
20240222025306 39 116 2.6 7.8 0.00 0.00 0.00 71 1025.2
20240222024803 39 105 4.3 7.8 0.00 0.00 0.00 71 1025.3
20240222024305 39 107 3.5 7.8 0.00 0.00 0.00 71 1025.3
20240222022804 39 142 2.6 5.2 0.00 0.00 0.00 71 1025.4
20240222022305 39 143 2.6 4.3 0.00 0.00 0.00 71 1025.4
20240222021804 39 115 1.7 5.2 0.00 0.00 0.00 71 1025.4
20240222020304 38 114 3.5 8.7 0.00 0.00 0.00 71 1025.3
20240222014804 38 124 2.6 6.1 0.00 0.00 0.00 70 1025.3
20240222014304 38 112 4.3 8.7 0.00 0.00 0.00 70 1025.5
20240222013804 38 111 2.6 7.8 0.00 0.00 0.00 69 1025.6
20240222013304 38 116 2.6 7.8 0.00 0.00 0.00 70 1025.8
20240222011804 38 139 2.6 6.1 0.00 0.00 0.00 69 1025.8
20240222010803 38 115 4.3 7.8 0.00 0.00 0.00 70 1025.7
20240222010304 38 117 3.5 10.4 0.00 0.00 0.00 69 1025.7
20240222005307 38 100 7.8 13.9 0.00 0.00 0.00 69 1025.7
20240222004804 38 104 6.1 10.4 0.00 0.00 0.00 69 1025.7
20240222004303 38 106 5.2 10.4 0.00 0.00 0.00 69 1025.6
20240222003804 38 109 5.2 10.4 0.00 0.00 0.00 69 1025.6
20240222002805 39 110 6.1 10.4 0.00 0.00 0.00 69 1025.5
20240222001805 39 98 7.8 13.0 0.00 0.00 0.00 70 1025.4
20240222001305 39 108 6.1 13.0 0.00 0.00 0.00 69 1025.5
20240221235806 39 105 7.0 11.3 0.00 0.00 0.00 69 1025.9
20240221235306 39 102 6.1 10.4 0.00 0.00 0.00 69 1025.9
20240221234806 39 117 6.1 10.4 0.00 0.00 0.00 68 1026.0
20240221233305 39 119 6.1 10.4 0.00 0.00 0.00 69 1026.2
20240221232806 39 121 4.3 8.7 0.00 0.00 0.00 68 1026.3
20240221232306 39 125 2.6 8.7 0.00 0.00 0.00 67 1026.3
20240221230805 39 109 5.2 8.7 0.00 0.00 0.00 69 1026.5
20240221223306 39 125 3.5 8.7 0.00 0.00 0.00 69 1026.6
20240221222805 39 118 4.3 8.7 0.00 0.00 0.00 69 1026.6
20240221222307 39 99 5.2 8.7 0.00 0.00 0.00 68 1026.6
20240221220306 39 94 2.6 7.8 0.00 0.00 0.00 67 1026.8
20240221214806 39 104 7.0 12.2 0.00 0.00 0.00 67 1026.8
20240221213805 39 98 5.2 10.4 0.00 0.00 0.00 67 1026.8
20240221213306 39 75 4.3 7.0 0.00 0.00 0.00 66 1026.7
20240221212306 39 69 5.2 10.4 0.00 0.00 0.00 66 1026.9
20240221210806 40 89 5.2 10.4 0.00 0.00 0.00 65 1026.9
20240221205305 40 99 6.1 11.3 0.00 0.00 0.00 68 1026.8
20240221204806 40 98 5.2 10.4 0.00 0.00 0.00 66 1026.7
20240221202306 40 102 7.0 11.3 0.00 0.00 0.00 65 1026.9
20240221201305 40 102 4.3 8.7 0.00 0.00 0.00 64 1027.1
20240221200805 41 85 4.3 10.4 0.00 0.00 0.00 63 1027.1
20240221194305 41 105 5.2 10.4 0.00 0.00 0.00 63 1027.0
20240221193306 41 95 4.3 6.1 0.00 0.00 0.00 63 1027.1
20240221192306 41 87 4.3 10.4 0.00 0.00 0.00 64 1027.2
20240221191305 41 108 5.2 10.4 0.00 0.00 0.00 62 1027.3
20240221190305 41 110 4.3 7.8 0.00 0.00 0.00 61 1027.5
20240221185806 41 106 2.6 6.1 0.00 0.00 0.00 63 1027.6
20240221184305 41 90 5.2 7.8 0.00 0.00 0.00 62 1027.8
20240221183807 41 92 4.3 7.0 0.00 0.00 0.00 63 1027.9
20240221183306 41 108 5.2 8.7 0.00 0.00 0.00 62 1028.0
20240221175806 42 90 4.3 7.8 0.00 0.00 0.00 61 1028.5
20240221174306 41 94 4.3 7.8 0.00 0.00 0.00 62 1028.7
20240221172805 41 108 5.2 10.4 0.00 0.00 0.00 63 1028.9
20240221172306 41 104 5.2 10.4 0.00 0.00 0.00 62 1029.0
20240221171805 41 108 4.3 8.7 0.00 0.00 0.00 61 1029.1
20240221171306 41 97 4.3 8.7 0.00 0.00 0.00 62 1029.2
20240221170305 41 103 5.2 10.4 0.00 0.00 0.00 65 1029.5
20240221164806 41 90 4.3 10.4 0.00 0.00 0.00 62 1029.9
20240221164306 41 100 4.3 8.7 0.00 0.00 0.00 63 1030.0
20240221163306 41 96 6.1 10.4 0.00 0.00 0.00 64 1030.1
20240221162805 41 92 5.2 8.7 0.00 0.00 0.00 64 1030.3
20240221161805 40 87 6.1 10.4 0.00 0.00 0.00 63 1030.5
20240221160805 40 88 5.2 10.4 0.00 0.00 0.00 64 1030.6
20240221154805 40 86 4.3 8.7 0.00 0.00 0.00 65 1030.9
20240221152806 40 92 7.8 14.8 0.00 0.00 0.00 65 1030.8
20240221151305 40 99 4.3 12.2 0.00 0.00 0.00 64 1030.9
20240221150806 40 98 6.1 12.2 0.00 0.00 0.00 67 1030.9
20240221150305 39 97 7.8 12.2 0.00 0.00 0.00 65 1031.0
20240221145806 39 107 6.1 12.2 0.00 0.00 0.00 65 1031.0
20240221144805 39 91 7.8 13.0 0.00 0.00 0.00 66 1031.1
20240221144306 39 103 7.8 12.2 0.00 0.00 0.00 66 1031.2
20240221142805 39 86 7.0 10.4 0.00 0.00 0.00 66 1031.2
20240221142306 39 93 6.1 10.4 0.00 0.00 0.00 66 1031.1
20240221135805 40 103 7.0 10.4 0.00 0.00 0.00 67 1031.1
20240221135306 39 82 6.1 10.4 0.00 0.00 0.00 68 1031.1
20240221134805 39 101 5.2 10.4 0.00 0.00 0.00 68 1031.0
20240221132805 38 108 7.0 13.9 0.00 0.00 0.00 68 1030.7
20240221132306 38 82 7.8 11.3 0.00 0.00 0.00 68 1030.7
20240221131306 38 101 6.1 11.3 0.00 0.00 0.00 68 1030.7
20240221130807 38 97 6.1 10.4 0.00 0.00 0.00 68 1030.8
20240221125307 38 100 5.2 11.3 0.00 0.00 0.00 67 1030.7
20240221124805 38 96 6.1 12.2 0.00 0.00 0.00 68 1030.7
20240221122306 38 98 7.0 10.4 0.00 0.00 0.00 70 1030.4
20240221115805 38 113 5.2 10.4 0.00 0.00 0.00 69 1030.2
20240221115306 38 110 5.2 11.3 0.00 0.00 0.00 70 1030.2
20240221114305 38 118 4.3 10.4 0.00 0.00 0.00 70 1030.2
20240221113805 38 101 6.1 11.3 0.00 0.00 0.00 70 1030.2
20240221111305 37 129 4.3 10.4 0.00 0.00 0.00 70 1030.3
20240221110306 37 116 5.2 8.7 0.00 0.00 0.00 69 1030.5